Hamilton, OH

12:43 AM EDT on March 29, 2017 (GMT -0400)
Butler County Regional

Weather History for KHAO - June, 2013

Change the Weather History Date:

Wednesday, June 19, 2013

  Actual Average (KLUK) Record (KLUK)
Temperature  
Mean Temperature 68 °F -  
Max Temperature 81 °F 83 °F 93 °F (1975)
Min Temperature 57 °F 63 °F 46 °F (1959)
Cooling Degree Days 4    
Growing Degree Days 18 (Base 50)    
Moisture  
Dew Point 55 °F    
Average Humidity 63    
Maximum Humidity 89    
Minimum Humidity 43    
Precipitation  
Precipitation 0.00 in - - ()
Sea Level Pressure  
Sea Level Pressure 30.08 in    
Wind  
Wind Speed 4 mph (ENE)    
Max Wind Speed 9 mph    
Max Gust Speed -    
Visibility 10 miles    
Events      
Averages and records for this station are not official NWS values.
T = Trace of Precipitation, MM = Missing Value Source: NWS Daily Summary

Daily Weather History Graph

Daily Weather History Graph

Search for Another Location

Airport or City:

Trip Planner

Search our weather history database for the weather conditions in past years. The results will help you decide how hot, cold, wet, or windy it might be!

Date:

Astronomy

Jun. 19, 2013 Rise Set
Actual Time 6:11 AM EDT 9:07 PM EDT
Civil Twilight 5:38 AM EDT 9:40 PM EDT
Nautical Twilight 4:57 AM EDT 10:21 PM EDT
Astronomical Twilight 4:10 AM EDT 11:08 PM EDT
Moon 5:00 PM EDT (6/19) 2:54 AM EDT (6/19)
Length of Visible Light 16h 01m
Length of Day
14h 56m
Waxing Gibbous, 80% of the Moon is Illuminated
Jun 19
Waxing Gibbous
Jun 23
Full
Jun 30
Last Quarter
Jul 8
New
Jul 15
First Quarter

Hourly Weather History & Observations

Time (EDT) Temp. Heat Index Dew Point Humidity Pressure Visibility Wind Dir Wind Speed Gust Speed Precip Events Conditions
12:53 AM 66.9 °F - 57.0 °F 70% 30.01 in 10.0 mi ENE 4.6 mph - N/A   Clear
1:53 AM 64.0 °F - 55.9 °F 75% 30.02 in 10.0 mi NE 4.6 mph - N/A   Clear
2:53 AM 63.0 °F - 55.0 °F 75% 30.02 in 10.0 mi Calm Calm - N/A   Clear
3:53 AM 62.1 °F - 54.0 °F 75% 30.03 in 10.0 mi ENE 5.8 mph - N/A   Clear
4:53 AM 60.1 °F - 54.0 °F 80% 30.03 in 10.0 mi ENE 3.5 mph - N/A   Clear
5:53 AM 57.0 °F - 54.0 °F 89% 30.05 in 10.0 mi Calm Calm - N/A   Clear
6:53 AM 59.0 °F - 55.0 °F 87% 30.08 in 9.0 mi Calm Calm - N/A   Clear
7:53 AM 63.0 °F - 55.0 °F 75% 30.09 in 10.0 mi NE 4.6 mph - N/A   Clear
8:53 AM 66.0 °F - 53.1 °F 63% 30.10 in 10.0 mi ENE 8.1 mph - N/A   Clear
9:53 AM 70.0 °F - 53.1 °F 55% 30.12 in 10.0 mi NE 6.9 mph - N/A   Clear
10:53 AM 72.0 °F - 52.0 °F 49% 30.11 in 10.0 mi ENE 6.9 mph - N/A   Clear
11:53 AM 73.9 °F - 54.0 °F 50% 30.12 in 10.0 mi NE 9.2 mph - N/A   Clear
12:53 PM 75.9 °F - 54.0 °F 46% 30.11 in 10.0 mi East 4.6 mph - N/A   Clear
1:53 PM 78.1 °F - 54.0 °F 43% 30.11 in 10.0 mi Variable 3.5 mph - N/A   Clear
2:53 PM 78.1 °F - 54.0 °F 43% 30.09 in 10.0 mi Variable 5.8 mph - N/A   Clear
3:53 PM 79.0 °F - 55.9 °F 45% 30.09 in 10.0 mi ESE 5.8 mph - N/A   Clear
4:53 PM 79.0 °F - 55.0 °F 44% 30.08 in 10.0 mi Variable 5.8 mph - N/A   Clear
5:53 PM 80.1 °F 80.2 °F 55.9 °F 43% 30.08 in 10.0 mi ENE 5.8 mph - N/A   Clear
6:53 PM 79.0 °F - 55.0 °F 44% 30.07 in 10.0 mi NE 4.6 mph - N/A   Clear
7:53 PM 77.0 °F - 55.9 °F 48% 30.07 in 10.0 mi East 3.5 mph - N/A   Clear
8:53 PM 69.1 °F - 59.0 °F 70% 30.09 in 10.0 mi Calm Calm - N/A   Clear
9:53 PM 64.0 °F - 57.0 °F 78% 30.11 in 10.0 mi Calm Calm - N/A   Clear
10:53 PM 62.1 °F - 57.0 °F 84% 30.13 in 10.0 mi Calm Calm - N/A   Clear
11:53 PM 60.1 °F - 55.9 °F 86% 30.14 in 10.0 mi Calm Calm - N/A   Clear